Location: Memphis
(29.8667°N, 31.2500°E)
Time: 11:44:01
(UTC+00:00)

Cosmos 2242 Rocket - Pass Details

Date: 03 March 2021
Orbit: 617 x 652 km, 82.5° (Epoch: 15 April)

Event Time Altitude Azimuth Distance (km) Brightness Sun altitude
Rises 17:32:34 0° 352° (N) 2,937 7.2 -21.8°
Reaches altitude 10° 17:34:49 10° 352° (N) 2,019 6.3 -22.3°
Maximum altitude 17:39:18 82° 265° (W) 639 3.6 -23.3°
Enters shadow 17:41:42 27° 180° (S) 1,214 4.9 -23.8°
